Regional Weather Roundup
Issued by NWS Boston, MA

Home | Current Version | Previous Version | Text Only | Print | Product List | Glossary On
Versions: 1 2 3 4 5 6 7 8 9 10 11 12 13 14 15 16 17 18 19 20 21 22 23 24 25 26 27
000
ASUS41 KBOX 250910
RWRBOX

REGIONAL WEATHER ROUNDUP
NATIONAL WEATHER SERVICE BOSTON/NORTON MA
500 AM EDT WED APR 25 2018

NOTE:  "FAIR" INDICATES FEW OR NO CLOUDS BELOW 12,000 FEET WITH NO
SIGNIFICANT WEATHER AND/OR OBSTRUCTIONS TO VISIBILITY.

MAZALL-251000-
EASTERN MASSACHUSETTS

CITY           SKY/WX    TMP DP  RH WIND       PRES   REMARKS
BOSTON         MOCLDY    47  41  80 NE7       30.14F
BEVERLY        FAIR      48  37  65 E5        30.15F
LAWRENCE       FAIR      53  37  54 E3        30.16F
BEDFORD        FAIR      51  41  68 SE5       30.13F
BLUE HILL        N/A     48  42  80 SE14      30.11F
NORWOOD        FAIR      51  41  68 CALM      30.14F
MARSHFIELD     FAIR      50  46  87 SE6       30.14F
PLYMOUTH       FAIR      54  44  69 SE6       30.14F
TAUNTON        MOCLDY    51  44  77 CALM      30.13F
NEW BEDFORD    MOCLDY    52  45  77 SE13      30.12F
$$

MAZALL-251000-
CAPE COD AND THE ISLANDS

CITY           SKY/WX    TMP DP  RH WIND       PRES   REMARKS
FALMOUTH         N/A     52  45  76 SE16G25   30.15
HYANNIS        CLOUDY    51  46  83 SE9G17    30.13F
CHATHAM        MOCLDY    51  46  83 SE13G22   30.17F
PROVINCETOWN   FAIR      50  45  83 SE9       30.16F
NANTUCKET      CLOUDY    49  47  93 SE16      30.15F
MARTHAS VNYRD  CLOUDY    51  45  79 SE15G23   30.13F
$$

MAZALL-251000-
CENTRAL AND WESTERN MASSACHUSETTS

CITY           SKY/WX    TMP DP  RH WIND       PRES   REMARKS
WORCESTER      LGT RAIN  47  40  76 SE6       30.12F
FITCHBURG      CLOUDY    53  39  59 CALM      30.14F
ORANGE         LGT RAIN  47  42  83 CALM      30.13F
SPRINGFIELD    LGT RAIN  48  44  88 NE5       30.10
WESTFIELD      LGT RAIN  47  46  97 N5        30.10F
NORTH ADAMS    LGT RAIN  46  42  86 E10       30.10F
PITTSFIELD     LGT RAIN  44  40  85 E6        30.07F
$$

RIZALL-251000-
RHODE ISLAND

CITY           SKY/WX    TMP DP  RH WIND       PRES   REMARKS
PROVIDENCE     LGT RAIN  52  47  83 S6        30.13F
NEWPORT        LGT RAIN  50  46  86 SE13      30.12F
BLOCK ISLAND   LGT RAIN  50  48  93 SE14      30.10F
SMITHFIELD     CLOUDY    47  39  74 MISG      30.13F
WESTERLY       LGT RAIN  50  48  93 E9        30.11F
$$

CTZALL-251000-
CONNECTICUT

CITY           SKY/WX    TMP DP  RH WIND       PRES   REMARKS
BRADLEY INTL   LGT RAIN  48  45  89 N5        30.10F
HARTFORD       LGT RAIN  51  47  86 VRB3      30.09F
BRIDGEPORT     LGT RAIN  48  46  93 E12       30.05F
DANBURY        CLOUDY    51  50  96 E9        30.04F
GROTON         LGT RAIN  49  48  97 E10       30.09F
NEW HAVEN      LGT RAIN  52  48  86 E8        30.06F
CHESTER        LGT RAIN  50  50 100 SE6G14    30.08F
MERIDEN        LGT RAIN  51  49  92 NE3       30.08F
WILLIMANTIC    LGT RAIN  50  46  86 CALM      30.11F
OXFORD         LGT RAIN  49  48  97 E6        30.06F
$$

MEZ002-015-021-024-NHZ003-005-008-011-012-014-VTZ005-008-251000-
NORTHERN NEW ENGLAND

CITY           SKY/WX    TMP DP  RH WIND       PRES   REMARKS
PORTLAND ME    CLOUDY    47  38  71 CALM      30.17F
BANGOR ME      MOCLDY    46  37  71 S8        30.15F
CONCORD NH     FAIR      51  36  56 SE5       30.14F
MANCHESTER NH  CLOUDY    53  34  48 SE3       30.13F
NASHUA NH      MOCLDY    51  38  60 CALM      30.15F
PORTSMOUTH NH  CLOUDY    49  35  57 SE7       30.14F
JAFFREY NH     CLOUDY    48  38  68 CALM      30.12F
KEENE NH       LGT RAIN  49  39  68 CALM      30.12F
BURLINGTON VT  CLOUDY    56  40  55 S14       30.05F
MT. WASHINGTON FOG       32  32 100 W37         N/A  VSB 0   WCI  16
$$

NYZ052-076-251000-
EASTERN NEW YORK

CITY           SKY/WX    TMP DP  RH WIND       PRES   REMARKS
ALBANY         LGT RAIN  49  45  86 CALM      30.09F
NEW YORK CITY  CLOUDY    55  53  93 E13       29.99F
$$

ANZALL-251000-
MARINE OBSERVATIONS

STATION/POSITION TIME  TEMP    WIND        PRES    VSBY  WAVE
                       AIR SEA DIR/SP/G                  HT/PER
                 (UTC) (F)     (DEG/KT/KT) (MB)    (MI)  (FT/S)
BOSTON BUOY      0850   46 44  110/  8/ 10 1020.9F         1/ 9
BUZZARDS BAY     0800   49     130/ 19/ 20 1020.6F
NANTUCKET SOUND  0750   49 45  140/ 14/ 16 1021.5          1/ 3
MASS BAY-STELLWA 0804   45 43              1020.5F         2/ 4
ISLE OF SHOALS   0900   47     150/ 11/ 12 1021.0F
S OF BLOCK IS    0843      44                N/A           4/ 6
$$

......................KEY.........................
  SKY/WX - SKY CONDITION/PRESENT WEATHER
  TMP    - TEMPERATURE IN FAHRENHEIT
  DWPT   - DEWPOINT IN FAHRENHEIT
  RH     - RELATIVE HUMIDITY IN PERCENT
  WIND   - DIRECTION AND SPEED IN MPH
  PRES   - MEAN SEA LEVEL PRESSURE IN INCHES OF HG
  WCI    - WIND CHILL INDEX
  VSB    - VISIBILITY IN MILES
  HX     - HEAT INDEX
  TC     - TEMPERATURE IN CELSIUS
  VRB    - VARIABLE WIND DIRECTION
  N/A    - NOT AVAILABLE




USA.gov is the U.S. government's official web portal to all federal, state and local government web resources and services.